contact:dominique.lefevre@mio.osupytheas.fr, maurice.libes@osupytheas.fr, didier.mallarino@osupytheas.fr
Project:EMSO http://www.emso-fr.org/EMSO-France
Depth: 2436.0 m
Title:EMSO Ligure Ouest : Data MII capteur AQUADOPP
Date,Latitude,Longitude,X_East,Y_North,Z_Up,Amplitude_X,Amplitude_Y,Amplitude_Z,Batterie,SoundSpeed,Heading,Pitch,Roll,Pressure,TIS,Speed,Direction
, degrees North, degrees East, m.s-1, m.s-1,m.s-1, 1, 1, 1, Volt, m.s-1, degree, degree, degree, dbar, degree_C, m.s-1, degree
2020-04-01T00:04:02,42.805,6.029,0.021,0.034,-0.022,106.0,118.0,102.0,13.4,1505.2,323.6,-0.8,1.8,2470.461,13.3,0.039,31.7
2020-04-01T00:07:02,42.805,6.029,0.036,0.011,-0.016,105.0,119.0,102.0,13.4,1505.3,327.5,-0.7,1.8,2470.436,13.31,0.037,73.0
2020-04-01T00:10:02,42.805,6.029,0.02,0.011,-0.027,105.0,119.0,102.0,13.3,1505.3,326.8,-0.7,1.8,2470.445,13.32,0.022,61.2
2020-04-01T00:13:02,42.805,6.029,0.01,0.029,-0.007,104.0,121.0,103.0,13.4,1505.3,327.2,-0.7,1.8,2470.4,13.32,0.03,19.0
2020-04-01T00:16:02,42.805,6.029,0.019,0.041,-0.004,104.0,119.0,103.0,13.3,1505.3,328.3,-0.7,1.8,2470.434,13.32,0.045,24.9
2020-04-01T00:19:02,42.805,6.029,0.017,0.003,-0.055,106.0,116.0,102.0,13.4,1505.3,327.0,-0.7,1.8,2470.395,13.32,0.017,80.0
2020-04-01T00:22:02,42.805,6.029,0.011,0.034,-0.025,105.0,117.0,102.0,13.4,1505.3,327.0,-0.7,1.8,2470.415,13.32,0.035,17.9
2020-04-01T00:25:02,42.805,6.029,0.03,0.009,-0.012,105.0,119.0,102.0,13.4,1505.3,323.3,-0.7,1.8,2470.457,13.32,0.031,73.3
2020-04-01T00:28:02,42.805,6.029,0.005,0.028,-0.04,105.0,120.0,103.0,13.4,1505.3,323.9,-0.7,1.8,2470.4,13.32,0.028,10.1
2020-04-01T00:31:02,42.805,6.029,0.027,0.043,-0.014,104.0,120.0,102.0,13.4,1505.3,326.4,-0.7,1.8,2470.453,13.32,0.05,32.1
2020-04-01T00:34:02,42.805,6.029,0.02,0.025,-0.014,105.0,119.0,102.0,13.3,1505.3,324.1,-0.7,1.9,2470.406,13.32,0.032,38.7
2020-04-01T00:37:02,42.805,6.029,0.019,0.032,-0.016,106.0,118.0,103.0,13.4,1505.3,327.1,-0.7,1.9,2470.417,13.32,0.037,30.7
2020-04-01T00:40:02,42.805,6.029,0.03,0.048,-0.028,105.0,118.0,102.0,13.4,1505.3,324.8,-0.7,1.8,2470.406,13.32,0.056,32.0
2020-04-01T00:43:02,42.805,6.029,0.014,0.025,-0.019,105.0,117.0,102.0,13.4,1505.3,326.0,-0.7,1.8,2470.438,13.32,0.028,29.3
2020-04-01T00:46:02,42.805,6.029,-0.002,0.036,-0.031,105.0,117.0,102.0,13.4,1505.3,324.5,-0.7,1.8,2470.429,13.32,0.036,356.8
2020-04-01T00:49:02,42.805,6.029,0.015,0.008,-0.009,104.0,118.0,102.0,13.4,1505.3,325.4,-0.7,1.8,2470.413,13.32,0.017,61.9
2020-04-01T00:52:02,42.805,6.029,0.02,0.028,-0.071,105.0,118.0,102.0,13.4,1505.3,328.1,-0.7,1.8,2470.397,13.32,0.034,35.5
2020-04-01T00:55:02,42.805,6.029,0.006,0.026,-0.008,105.0,119.0,102.0,13.4,1505.3,323.5,-0.7,1.8,2470.425,13.32,0.026,13.0
2020-04-01T00:58:02,42.805,6.029,0.019,0.024,-0.041,105.0,116.0,103.0,13.4,1505.3,325.0,-0.7,1.8,2470.412,13.32,0.03,38.4
2020-04-01T01:04:02,42.805,6.029,0.014,0.026,-0.02,106.0,117.0,103.0,13.3,1505.2,328.3,-0.7,1.8,2470.419,13.3,0.029,28.3
2020-04-01T01:07:03,42.805,6.029,0.05,0.031,-0.017,106.0,116.0,102.0,13.3,1505.3,327.2,-0.7,1.9,2470.449,13.31,0.058,58.2
2020-04-01T01:10:03,42.805,6.029,-0.001,0.024,-0.023,105.0,118.0,103.0,13.4,1505.3,324.6,-0.7,1.8,2470.49,13.32,0.024,357.6
2020-04-01T01:13:02,42.805,6.029,0.029,0.037,-0.019,107.0,117.0,101.0,13.4,1505.3,325.9,-0.7,1.8,2470.424,13.32,0.047,38.1
2020-04-01T01:16:02,42.805,6.029,0.029,0.035,-0.019,105.0,116.0,103.0,13.4,1505.3,326.0,-0.8,1.8,2470.405,13.32,0.045,39.6
2020-04-01T01:19:02,42.805,6.029,0.038,0.028,0.0,106.0,117.0,102.0,13.3,1505.3,326.0,-0.7,1.8,2470.428,13.32,0.047,53.6
2020-04-01T01:22:02,42.805,6.029,0.049,0.033,0.007,106.0,117.0,102.0,13.4,1505.3,323.7,-0.7,1.8,2470.413,13.32,0.059,56.0
2020-04-01T01:25:02,42.805,6.029,-0.008,0.024,-0.087,104.0,118.0,102.0,13.3,1505.3,324.4,-0.7,1.8,2470.419,13.32,0.025,341.6
2020-04-01T01:28:02,42.805,6.029,0.02,0.031,-0.04,105.0,118.0,102.0,13.4,1505.3,324.8,-0.7,1.8,2470.441,13.32,0.036,32.8
2020-04-01T01:31:02,42.805,6.029,0.005,0.024,-0.06,103.0,119.0,102.0,13.4,1505.3,326.3,-0.7,1.8,2470.416,13.32,0.024,11.8
2020-04-01T01:34:02,42.805,6.029,0.006,0.03,-0.024,105.0,120.0,101.0,13.4,1505.3,325.2,-0.7,1.8,2470.41,13.32,0.03,11.3
2020-04-01T01:37:02,42.805,6.029,0.031,0.029,0.003,105.0,118.0,103.0,13.4,1505.3,326.1,-0.7,1.8,2470.407,13.32,0.042,46.9
2020-04-01T01:40:02,42.805,6.029,0.007,0.032,-0.04,104.0,117.0,102.0,13.4,1505.3,327.7,-0.7,1.8,2470.442,13.32,0.032,12.3
2020-04-01T01:43:02,42.805,6.029,0.025,0.028,-0.024,106.0,118.0,101.0,13.3,1505.3,324.7,-0.7,1.8,2470.368,13.32,0.037,41.8
2020-04-01T01:46:02,42.805,6.029,0.021,0.046,-0.009,104.0,117.0,102.0,13.4,1505.3,323.5,-0.7,1.8,2470.458,13.32,0.05,24.5
2020-04-01T01:49:02,42.805,6.029,0.04,0.044,0.025,105.0,117.0,101.0,13.4,1505.3,325.8,-0.7,1.8,2470.387,13.32,0.059,42.3
2020-04-01T01:52:02,42.805,6.029,0.028,0.031,-0.028,105.0,118.0,102.0,13.4,1505.3,326.7,-0.7,1.8,2470.435,13.32,0.041,42.1
2020-04-01T01:55:02,42.805,6.029,0.047,0.039,0.005,105.0,117.0,102.0,13.4,1505.3,327.4,-0.7,1.9,2470.393,13.32,0.061,50.3
2020-04-01T01:58:03,42.805,6.029,0.011,0.034,-0.035,105.0,119.0,102.0,13.4,1505.3,325.5,-0.7,1.8,2470.437,13.32,0.035,17.9
2020-04-01T02:04:02,42.805,6.029,0.027,0.027,-0.027,104.0,118.0,102.0,13.4,1505.2,324.9,-0.7,1.8,2470.447,13.3,0.038,45.0
2020-04-01T02:07:02,42.805,6.029,0.026,0.021,-0.057,106.0,119.0,103.0,13.4,1505.3,325.1,-0.7,1.8,2470.455,13.31,0.033,51.1
2020-04-01T02:10:02,42.805,6.029,0.033,0.032,-0.026,106.0,118.0,102.0,13.4,1505.3,325.1,-0.7,1.8,2470.432,13.32,0.045,45.9
2020-04-01T02:13:02,42.805,6.029,0.036,0.029,-0.005,106.0,119.0,102.0,13.4,1505.3,325.5,-0.7,1.8,2470.419,13.32,0.046,51.1
2020-04-01T02:16:02,42.805,6.029,0.029,0.018,-0.023,105.0,118.0,103.0,13.3,1505.3,324.7,-0.7,1.8,2470.449,13.32,0.034,58.2
2020-04-01T02:19:02,42.805,6.029,0.035,0.052,0.013,106.0,118.0,103.0,13.4,1505.3,325.6,-0.7,1.8,2470.424,13.32,0.062,33.9
2020-04-01T02:22:02,42.805,6.029,0.018,0.022,-0.026,104.0,119.0,103.0,13.4,1505.3,324.8,-0.7,1.8,2470.394,13.32,0.028,39.3
2020-04-01T02:25:02,42.805,6.029,0.019,0.031,-0.01,106.0,118.0,102.0,13.4,1505.3,325.2,-0.7,1.8,2470.392,13.32,0.036,31.5
2020-04-01T02:28:02,42.805,6.029,0.024,0.035,-0.024,105.0,118.0,102.0,13.4,1505.3,325.3,-0.7,1.8,2470.385,13.32,0.042,34.4
2020-04-01T02:31:02,42.805,6.029,0.024,0.028,-0.026,104.0,118.0,104.0,13.4,1505.3,324.3,-0.7,1.8,2470.413,13.32,0.036,40.6
2020-04-01T02:34:03,42.805,6.029,0.022,0.024,-0.035,105.0,118.0,102.0,13.4,1505.3,328.2,-0.7,1.8,2470.392,13.32,0.032,42.5
2020-04-01T02:37:02,42.805,6.029,0.01,0.027,-0.048,106.0,118.0,103.0,13.4,1505.3,324.2,-0.7,1.8,2470.391,13.32,0.028,20.3
2020-04-01T02:40:02,42.805,6.029,0.015,0.021,-0.056,105.0,118.0,101.0,13.4,1505.3,324.6,-0.7,1.8,2470.366,13.32,0.025,35.5
2020-04-01T02:43:02,42.805,6.029,0.037,0.013,-0.051,106.0,117.0,104.0,13.4,1505.3,326.1,-0.7,1.8,2470.393,13.32,0.039,70.6
2020-04-01T02:46:03,42.805,6.029,0.014,0.04,-0.042,105.0,118.0,103.0,13.4,1505.3,324.0,-0.7,1.8,2470.421,13.32,0.042,19.3
2020-04-01T02:49:02,42.805,6.029,0.021,0.05,-0.027,106.0,117.0,103.0,13.4,1505.3,325.4,-0.7,1.8,2470.364,13.32,0.054,22.8
2020-04-01T02:52:02,42.805,6.029,0.02,0.037,-0.027,105.0,119.0,102.0,13.4,1505.3,323.1,-0.7,1.8,2470.351,13.32,0.042,28.4
2020-04-01T02:55:02,42.805,6.029,0.036,0.034,-0.02,106.0,118.0,102.0,13.4,1505.3,327.6,-0.7,1.8,2470.378,13.32,0.049,46.6
2020-04-01T02:58:02,42.805,6.029,0.028,0.026,-0.018,106.0,118.0,102.0,13.4,1505.3,325.2,-0.7,1.8,2470.391,13.32,0.038,47.1
2020-04-01T03:04:02,42.805,6.029,0.046,0.03,-0.007,107.0,121.0,102.0,13.4,1505.2,326.3,-0.7,1.8,2470.464,13.3,0.054,56.9
2020-04-01T03:07:02,42.805,6.029,0.047,0.03,-0.016,105.0,118.0,102.0,13.4,1505.3,326.5,-0.7,1.8,2470.393,13.31,0.055,57.4
2020-04-01T03:10:02,42.805,6.029,0.024,0.028,-0.03,105.0,117.0,102.0,13.4,1505.3,326.6,-0.7,1.8,2470.403,13.32,0.036,40.6
2020-04-01T03:13:03,42.805,6.029,0.017,0.041,-0.012,105.0,117.0,103.0,13.4,1505.3,325.6,-0.7,1.8,2470.376,13.32,0.044,22.5
2020-04-01T03:16:03,42.805,6.029,0.016,0.028,-0.031,105.0,119.0,101.0,13.4,1505.3,326.3,-0.7,1.8,2470.418,13.32,0.032,29.7
2020-04-01T03:19:03,42.805,6.029,0.01,0.013,-0.009,105.0,118.0,103.0,13.4,1505.3,323.9,-0.7,1.8,2470.441,13.32,0.016,37.6
2020-04-01T03:22:02,42.805,6.029,0.034,0.036,-0.03,108.0,118.0,102.0,13.4,1505.3,326.6,-0.7,1.8,2470.409,13.32,0.049,43.4
2020-04-01T03:25:03,42.805,6.029,0.033,0.01,-0.024,105.0,120.0,101.0,13.4,1505.3,328.0,-0.7,1.8,2470.389,13.32,0.034,73.1
2020-04-01T03:28:03,42.805,6.029,0.029,0.035,-0.016,106.0,120.0,103.0,13.4,1505.3,328.3,-0.7,1.8,2470.414,13.32,0.045,39.6
2020-04-01T03:31:02,42.805,6.029,0.044,0.024,-0.028,105.0,120.0,102.0,13.3,1505.3,323.7,-0.7,1.8,2470.38,13.32,0.05,61.4
2020-04-01T03:34:02,42.805,6.029,0.025,0.034,-0.039,107.0,121.0,101.0,13.4,1505.3,326.2,-0.7,1.8,2470.379,13.32,0.042,36.3
2020-04-01T03:37:02,42.805,6.029,0.014,0.03,-0.032,105.0,120.0,102.0,13.4,1505.3,326.8,-0.7,1.8,2470.375,13.32,0.033,25.0
2020-04-01T03:40:03,42.805,6.029,0.001,0.027,-0.038,106.0,119.0,102.0,13.4,1505.3,326.1,-0.7,1.8,2470.385,13.32,0.027,2.1
2020-04-01T03:43:03,42.805,6.029,0.031,0.028,-0.039,106.0,118.0,102.0,13.4,1505.3,327.9,-0.7,1.8,2470.357,13.32,0.041,47.9
2020-04-01T03:46:02,42.805,6.029,0.019,0.019,-0.055,106.0,117.0,103.0,13.4,1505.3,326.6,-0.7,1.8,2470.361,13.32,0.026,45.0
2020-04-01T03:49:03,42.805,6.029,0.008,0.013,-0.063,105.0,118.0,102.0,13.4,1505.3,325.0,-0.7,1.9,2470.379,13.32,0.015,31.6
2020-04-01T03:52:02,42.805,6.029,0.04,0.023,-0.039,106.0,118.0,102.0,13.4,1505.3,327.0,-0.7,1.8,2470.376,13.32,0.046,60.1
2020-04-01T03:55:02,42.805,6.029,0.042,0.025,-0.05,106.0,118.0,102.0,13.3,1505.3,328.3,-0.7,1.8,2470.355,13.32,0.048,59.2
2020-04-01T03:58:03,42.805,6.029,0.028,0.019,0.0,105.0,118.0,102.0,13.4,1505.3,325.1,-0.7,1.9,2470.382,13.32,0.033,55.8
2020-04-01T04:04:02,42.805,6.029,0.015,0.023,-0.031,106.0,119.0,102.0,13.4,1505.2,323.6,-0.8,1.8,2470.389,13.3,0.027,33.1
2020-04-01T04:07:02,42.805,6.029,0.011,0.028,-0.025,105.0,118.0,102.0,13.4,1505.3,327.2,-0.7,1.8,2470.446,13.31,0.03,21.4
2020-04-01T04:10:02,42.805,6.029,0.019,0.029,-0.034,105.0,119.0,101.0,13.3,1505.3,323.6,-0.7,1.8,2470.376,13.32,0.034,33.2
2020-04-01T04:13:02,42.805,6.029,0.029,0.028,-0.022,106.0,120.0,101.0,13.3,1505.3,323.8,-0.7,1.8,2470.359,13.32,0.04,46.0
2020-04-01T04:16:03,42.805,6.029,0.024,0.023,-0.019,106.0,118.0,102.0,13.4,1505.3,324.5,-0.7,1.9,2470.404,13.32,0.033,46.2
2020-04-01T04:19:03,42.805,6.029,0.029,0.042,-0.002,105.0,117.0,103.0,13.3,1505.3,327.6,-0.7,1.9,2470.363,13.32,0.051,34.6
2020-04-01T04:22:02,42.805,6.029,0.02,0.025,-0.012,105.0,118.0,102.0,13.4,1505.3,327.7,-0.7,1.8,2470.392,13.32,0.032,38.7
2020-04-01T04:25:03,42.805,6.029,0.031,0.038,-0.011,105.0,118.0,102.0,13.4,1505.3,325.5,-0.7,1.8,2470.386,13.32,0.049,39.2
2020-04-01T04:28:03,42.805,6.029,0.039,0.009,0.002,106.0,118.0,102.0,13.4,1505.3,326.5,-0.7,1.8,2470.378,13.32,0.04,77.0
2020-04-01T04:31:03,42.805,6.029,0.053,0.016,-0.029,106.0,119.0,103.0,13.3,1505.3,326.9,-0.7,1.8,2470.359,13.32,0.055,73.2
2020-04-01T04:34:03,42.805,6.029,0.037,0.019,-0.013,105.0,119.0,102.0,13.4,1505.3,324.3,-0.7,1.8,2470.359,13.32,0.041,62.8
2020-04-01T04:37:02,42.805,6.029,0.028,0.023,-0.041,104.0,118.0,101.0,13.4,1505.3,325.9,-0.7,1.8,2470.361,13.32,0.036,50.6
2020-04-01T04:40:02,42.805,6.029,0.044,0.028,-0.028,106.0,117.0,101.0,13.4,1505.3,326.9,-0.7,1.8,2470.379,13.32,0.052,57.5
2020-04-01T04:43:02,42.805,6.029,0.003,0.024,-0.03,106.0,118.0,102.0,13.4,1505.3,325.8,-0.7,1.8,2470.376,13.32,0.024,7.1
2020-04-01T04:46:02,42.805,6.029,0.009,0.038,0.003,105.0,117.0,102.0,13.3,1505.3,324.2,-0.7,1.8,2470.372,13.32,0.039,13.3
2020-04-01T04:49:03,42.805,6.029,0.025,0.042,-0.021,106.0,117.0,104.0,13.4,1505.3,327.6,-0.7,1.9,2470.387,13.32,0.048,30.8
2020-04-01T04:52:02,42.805,6.029,0.0,0.019,-0.041,106.0,116.0,103.0,13.3,1505.3,324.6,-0.7,1.8,2470.332,13.32,0.019,0.0
2020-04-01T04:55:03,42.805,6.029,0.041,0.011,-0.012,105.0,119.0,103.0,13.3,1505.3,325.6,-0.7,1.8,2470.371,13.32,0.042,75.0
2020-04-01T04:58:03,42.805,6.029,0.054,0.028,-0.058,105.0,117.0,103.0,13.3,1505.3,324.1,-0.7,1.8,2470.376,13.32,0.06,62.6
2020-04-01T05:04:02,42.805,6.029,0.017,0.014,-0.027,106.0,117.0,103.0,13.4,1505.2,327.0,-0.7,1.8,2470.399,13.3,0.022,50.5
2020-04-01T05:07:02,42.805,6.029,0.038,0.042,0.013,106.0,117.0,102.0,13.4,1505.3,325.7,-0.7,1.8,2470.392,13.31,0.056,42.1
2020-04-01T05:10:02,42.805,6.029,0.034,0.009,-0.024,105.0,117.0,103.0,13.3,1505.3,325.3,-0.7,1.9,2470.385,13.32,0.035,75.2
2020-04-01T05:13:03,42.805,6.029,0.006,0.008,-0.039,106.0,118.0,102.0,13.4,1505.3,323.2,-0.7,1.8,2470.341,13.32,0.01,36.9
2020-04-01T05:16:03,42.805,6.029,0.025,0.023,-0.006,106.0,117.0,102.0,13.4,1505.3,327.3,-0.7,1.9,2470.365,13.32,0.033,47.4
2020-04-01T05:19:03,42.805,6.029,0.01,0.024,-0.055,106.0,117.0,103.0,13.3,1505.3,326.8,-0.7,1.8,2470.365,13.32,0.026,22.6
2020-04-01T05:22:02,42.805,6.029,0.027,0.035,0.005,105.0,118.0,103.0,13.4,1505.3,325.5,-0.7,1.9,2470.373,13.32,0.044,37.7
2020-04-01T05:25:03,42.805,6.029,0.049,0.005,-0.027,107.0,117.0,103.0,13.3,1505.3,324.1,-0.7,1.8,2470.364,13.32,0.049,84.2
2020-04-01T05:28:03,42.805,6.029,0.028,0.026,-0.035,106.0,117.0,103.0,13.4,1505.3,326.2,-0.7,1.8,2470.382,13.32,0.038,47.1
2020-04-01T05:31:03,42.805,6.029,0.048,0.048,-0.011,106.0,117.0,102.0,13.3,1505.3,326.9,-0.7,1.8,2470.406,13.32,0.067,45.0
2020-04-01T05:34:03,42.805,6.029,0.012,0.029,-0.03,106.0,116.0,103.0,13.3,1505.3,327.9,-0.7,1.8,2470.356,13.32,0.031,22.5
2020-04-01T05:37:02,42.805,6.029,0.021,0.028,0.0,106.0,116.0,104.0,13.4,1505.3,323.8,-0.7,1.8,2470.376,13.32,0.035,36.9
2020-04-01T05:40:03,42.805,6.029,0.015,0.03,-0.029,107.0,118.0,103.0,13.3,1505.3,324.1,-0.7,1.8,2470.362,13.32,0.033,26.6
2020-04-01T05:43:03,42.805,6.029,0.015,0.019,-0.017,106.0,117.0,103.0,13.4,1505.3,327.9,-0.7,1.8,2470.374,13.32,0.024,38.3
2020-04-01T05:46:03,42.805,6.029,0.041,0.022,-0.004,106.0,118.0,103.0,13.4,1505.3,326.9,-0.7,1.8,2470.341,13.32,0.046,61.8
2020-04-01T05:49:03,42.805,6.029,0.062,0.029,0.012,106.0,117.0,102.0,13.3,1505.3,323.6,-0.7,1.8,2470.335,13.32,0.068,64.9
2020-04-01T05:52:02,42.805,6.029,0.024,0.022,-0.008,107.0,117.0,103.0,13.3,1505.3,324.0,-0.7,1.8,2470.384,13.32,0.032,47.5
2020-04-01T05:55:03,42.805,6.029,0.029,0.01,-0.009,107.0,117.0,103.0,13.4,1505.3,327.1,-0.7,1.8,2470.361,13.32,0.03,71.0
2020-04-01T05:58:03,42.805,6.029,0.016,0.019,-0.012,107.0,118.0,103.0,13.4,1505.3,326.0,-0.7,1.8,2470.294,13.32,0.024,40.1
2020-04-01T06:04:02,42.805,6.029,0.044,0.011,-0.04,108.0,117.0,102.0,13.4,1505.2,327.3,-0.7,1.9,2470.372,13.3,0.045,76.0
2020-04-01T06:07:02,42.805,6.029,0.029,0.02,0.014,108.0,117.0,102.0,13.4,1505.3,328.0,-0.7,1.9,2470.358,13.31,0.035,55.4
2020-04-01T06:10:03,42.805,6.029,-0.006,0.014,-0.036,107.0,117.0,102.0,13.4,1505.3,326.8,-0.7,1.8,2470.345,13.32,0.015,336.8
2020-04-01T06:13:03,42.805,6.029,0.034,0.021,-0.005,107.0,117.0,102.0,13.4,1505.3,324.6,-0.7,1.8,2470.316,13.32,0.039,58.3
2020-04-01T06:16:03,42.805,6.029,0.004,0.032,-0.043,107.0,118.0,103.0,13.3,1505.3,324.8,-0.7,1.8,2470.363,13.32,0.032,7.1
2020-04-01T06:19:03,42.805,6.029,0.015,0.029,-0.027,107.0,116.0,104.0,13.4,1505.3,325.0,-0.7,1.8,2470.353,13.32,0.032,27.4
2020-04-01T06:22:02,42.805,6.029,0.029,0.009,-0.024,107.0,117.0,103.0,13.4,1505.3,328.6,-0.7,1.9,2470.363,13.32,0.03,72.8
2020-04-01T06:25:03,42.805,6.029,0.031,0.012,-0.005,106.0,117.0,103.0,13.3,1505.3,325.5,-0.7,1.8,2470.374,13.32,0.033,68.8
2020-04-01T06:28:03,42.805,6.029,0.027,-0.003,-0.033,106.0,118.0,102.0,13.4,1505.3,327.2,-0.7,1.8,2470.371,13.32,0.027,96.3
2020-04-01T06:31:03,42.805,6.029,0.028,0.021,-0.041,105.0,117.0,102.0,13.4,1505.3,323.7,-0.7,1.8,2470.327,13.32,0.035,53.1
2020-04-01T06:34:03,42.805,6.029,0.019,0.013,-0.024,107.0,117.0,103.0,13.4,1505.3,327.7,-0.7,1.8,2470.371,13.32,0.023,55.6
2020-04-01T06:37:02,42.805,6.029,0.029,0.012,-0.017,106.0,118.0,102.0,13.4,1505.3,326.7,-0.7,1.9,2470.336,13.32,0.031,67.5
2020-04-01T06:40:03,42.805,6.029,0.054,0.009,-0.016,107.0,117.0,103.0,13.4,1505.3,327.3,-0.7,1.8,2470.334,13.32,0.054,80.5
2020-04-01T06:43:03,42.805,6.029,0.031,0.029,0.011,106.0,117.0,103.0,13.4,1505.3,326.5,-0.7,1.8,2470.352,13.32,0.042,46.9
2020-04-01T06:46:03,42.805,6.029,0.036,0.02,-0.015,107.0,117.0,103.0,13.4,1505.3,328.3,-0.7,1.8,2470.332,13.32,0.041,60.9
2020-04-01T06:49:03,42.805,6.029,0.024,0.009,-0.03,107.0,117.0,103.0,13.4,1505.3,323.2,-0.7,1.8,2470.348,13.32,0.025,69.4
2020-04-01T06:52:02,42.805,6.029,0.031,0.0,-0.013,107.0,116.0,104.0,13.4,1505.3,324.6,-0.7,1.8,2470.322,13.32,0.03,90.0
2020-04-01T06:55:03,42.805,6.029,0.009,0.023,-0.039,106.0,118.0,102.0,13.3,1505.3,322.9,-0.7,1.8,2470.312,13.32,0.024,21.4
2020-04-01T06:58:03,42.805,6.029,0.033,0.016,-0.006,107.0,117.0,103.0,13.3,1505.3,327.1,-0.7,1.9,2470.339,13.32,0.036,64.1
2020-04-01T07:04:02,42.805,6.029,0.026,0.014,-0.028,106.0,116.0,102.0,13.4,1505.2,327.1,-0.7,1.8,2470.39,13.3,0.029,61.7
2020-04-01T07:07:02,42.805,6.029,0.028,0.015,-0.033,107.0,115.0,102.0,13.4,1505.3,323.4,-0.7,1.9,2470.339,13.31,0.031,61.8
2020-04-01T07:10:03,42.805,6.029,0.004,0.009,-0.039,107.0,116.0,103.0,13.4,1505.3,326.8,-0.7,1.8,2470.359,13.32,0.009,24.0
2020-04-01T07:13:03,42.805,6.029,0.003,0.012,-0.04,108.0,116.0,103.0,13.4,1505.3,325.7,-0.7,1.8,2470.368,13.32,0.012,14.0
2020-04-01T07:16:03,42.805,6.029,0.032,0.011,0.001,105.0,115.0,103.0,13.4,1505.3,326.4,-0.7,1.8,2470.372,13.32,0.033,71.0
2020-04-01T07:19:02,42.805,6.029,0.006,0.014,-0.035,106.0,116.0,103.0,13.4,1505.3,328.2,-0.7,1.8,2470.375,13.32,0.015,23.2
2020-04-01T07:22:02,42.805,6.029,0.029,0.028,-0.049,107.0,114.0,104.0,13.3,1505.3,323.3,-0.7,1.9,2470.333,13.32,0.04,46.0
2020-04-01T07:25:03,42.805,6.029,0.01,0.001,-0.031,106.0,116.0,103.0,13.4,1505.3,328.1,-0.7,1.9,2470.37,13.32,0.01,84.3
2020-04-01T07:28:03,42.805,6.029,0.012,0.02,-0.023,106.0,117.0,103.0,13.4,1505.3,324.6,-0.7,1.8,2470.371,13.32,0.023,31.0
2020-04-01T07:31:03,42.805,6.029,0.026,-0.006,-0.037,106.0,115.0,103.0,13.4,1505.3,325.9,-0.7,1.8,2470.289,13.32,0.026,103.0
2020-04-01T07:34:03,42.805,6.029,0.018,0.018,-0.061,106.0,116.0,104.0,13.3,1505.3,325.6,-0.7,1.9,2470.316,13.32,0.025,45.0
2020-04-01T07:37:02,42.805,6.029,0.009,0.002,-0.053,107.0,118.0,103.0,13.4,1505.3,326.5,-0.7,1.9,2470.318,13.32,0.009,77.5
2020-04-01T07:40:03,42.805,6.029,-0.001,0.04,-0.034,108.0,117.0,102.0,13.4,1505.3,328.2,-0.7,1.8,2470.313,13.32,0.04,358.6
2020-04-01T07:43:03,42.805,6.029,0.025,0.005,-0.044,106.0,116.0,103.0,13.4,1505.3,326.8,-0.7,1.8,2470.323,13.32,0.025,78.7
2020-04-01T07:46:03,42.805,6.029,0.036,0.036,-0.03,108.0,115.0,104.0,13.4,1505.3,324.6,-0.7,1.8,2470.35,13.32,0.05,45.0
2020-04-01T07:49:03,42.805,6.029,0.021,0.031,-0.032,107.0,115.0,102.0,13.3,1505.3,324.5,-0.7,1.9,2470.36,13.32,0.037,34.1
2020-04-01T07:52:02,42.805,6.029,0.012,0.028,-0.031,106.0,117.0,103.0,13.4,1505.3,323.2,-0.7,1.9,2470.346,13.32,0.03,23.2
2020-04-01T07:55:03,42.805,6.029,0.029,0.042,-0.032,107.0,116.0,102.0,13.4,1505.3,326.7,-0.7,1.8,2470.326,13.32,0.051,34.6
2020-04-01T07:58:03,42.805,6.029,0.031,0.015,-0.022,107.0,116.0,103.0,13.3,1505.3,324.1,-0.7,1.8,2470.321,13.32,0.034,64.2
2020-04-01T08:04:02,42.805,6.029,0.042,0.017,-0.007,107.0,116.0,103.0,13.4,1505.2,325.3,-0.8,1.8,2470.373,13.3,0.045,68.0
2020-04-01T08:07:02,42.805,6.029,-0.005,0.035,-0.038,108.0,116.0,102.0,13.4,1505.3,326.3,-0.7,1.8,2470.373,13.31,0.035,351.9
2020-04-01T08:10:03,42.805,6.029,0.026,0.028,-0.004,106.0,116.0,103.0,13.4,1505.3,328.5,-0.7,1.8,2470.393,13.32,0.038,42.9
2020-04-01T08:13:03,42.805,6.029,0.016,0.022,-0.008,107.0,118.0,102.0,13.3,1505.3,324.5,-0.7,1.8,2470.371,13.32,0.027,36.0
2020-04-01T08:16:03,42.805,6.029,0.034,0.023,-0.017,107.0,117.0,102.0,13.3,1505.3,324.5,-0.7,1.8,2470.378,13.32,0.041,55.9
2020-04-01T08:19:03,42.805,6.029,0.013,-0.001,-0.031,105.0,116.0,103.0,13.4,1505.3,327.8,-0.8,1.8,2470.373,13.32,0.013,94.4
2020-04-01T08:22:02,42.805,6.029,0.014,0.029,-0.026,107.0,116.0,103.0,13.3,1505.3,324.0,-0.7,1.8,2470.376,13.32,0.032,25.8
2020-04-01T08:25:03,42.805,6.029,0.047,0.0,-0.032,106.0,116.0,102.0,13.3,1505.3,326.3,-0.7,1.8,2470.361,13.32,0.047,90.0
2020-04-01T08:28:03,42.805,6.029,0.025,0.023,-0.011,106.0,116.0,104.0,13.3,1505.3,324.8,-0.7,1.8,2470.334,13.32,0.033,47.4
2020-04-01T08:31:03,42.805,6.029,0.021,0.011,-0.027,109.0,116.0,103.0,13.4,1505.3,323.6,-0.7,1.9,2470.328,13.32,0.023,62.4
2020-04-01T08:34:02,42.805,6.029,0.005,0.02,-0.034,107.0,117.0,103.0,13.3,1505.3,324.9,-0.7,1.8,2470.375,13.32,0.02,14.0
2020-04-01T08:37:02,42.805,6.029,0.032,0.002,-0.017,106.0,117.0,103.0,13.4,1505.3,324.0,-0.7,1.8,2470.374,13.32,0.032,86.4
2020-04-01T08:40:03,42.805,6.029,0.029,0.007,-0.013,106.0,117.0,103.0,13.4,1505.3,324.7,-0.7,1.8,2470.374,13.32,0.029,76.4
2020-04-01T08:43:03,42.805,6.029,0.013,0.01,-0.027,107.0,116.0,104.0,13.3,1505.3,325.2,-0.7,1.8,2470.355,13.32,0.016,52.4
2020-04-01T08:46:03,42.805,6.029,0.026,0.006,-0.075,107.0,116.0,104.0,13.4,1505.3,327.1,-0.7,1.8,2470.396,13.32,0.026,77.0
2020-04-01T08:49:03,42.805,6.029,0.015,0.022,-0.023,108.0,116.0,103.0,13.3,1505.3,326.8,-0.7,1.8,2470.325,13.32,0.026,34.3
2020-04-01T08:52:02,42.805,6.029,0.034,0.01,0.014,108.0,116.0,102.0,13.4,1505.3,322.8,-0.7,1.8,2470.328,13.32,0.035,73.6
2020-04-01T08:55:03,42.805,6.029,0.018,0.026,-0.033,107.0,116.0,103.0,13.4,1505.3,324.4,-0.7,1.8,2470.37,13.32,0.031,34.7
2020-04-01T08:58:02,42.805,6.029,0.032,0.015,-0.015,107.0,116.0,103.0,13.3,1505.3,325.0,-0.7,1.8,2470.326,13.32,0.035,64.9
2020-04-01T09:04:02,42.805,6.029,0.018,0.024,-0.058,106.0,116.0,102.0,13.4,1505.2,328.3,-0.7,1.9,2470.399,13.3,0.03,36.9
2020-04-01T09:07:02,42.805,6.029,0.044,0.019,0.028,106.0,115.0,102.0,13.4,1505.3,323.6,-0.7,1.9,2470.377,13.31,0.047,66.6
2020-04-01T09:10:03,42.805,6.029,0.038,0.025,0.008,107.0,115.0,103.0,13.3,1505.3,324.5,-0.7,1.8,2470.36,13.32,0.045,56.7
2020-04-01T09:13:03,42.805,6.029,0.017,0.023,-0.033,107.0,115.0,103.0,13.4,1505.3,324.0,-0.7,1.8,2470.385,13.32,0.028,36.5
2020-04-01T09:16:02,42.805,6.029,0.0,0.011,-0.05,105.0,116.0,103.0,13.4,1505.3,326.8,-0.7,1.8,2470.378,13.32,0.011,0.0
2020-04-01T09:19:03,42.805,6.029,0.032,0.008,-0.04,107.0,115.0,103.0,13.4,1505.3,323.0,-0.7,1.8,2470.338,13.32,0.032,76.0
2020-04-01T09:22:02,42.805,6.029,0.017,0.04,-0.011,106.0,115.0,104.0,13.4,1505.3,325.4,-0.7,1.8,2470.344,13.32,0.043,23.0
2020-04-01T09:25:03,42.805,6.029,-0.001,0.022,-0.039,108.0,115.0,103.0,13.3,1505.3,327.7,-0.8,1.8,2470.377,13.32,0.022,357.4
2020-04-01T09:28:03,42.805,6.029,0.029,0.013,-0.002,106.0,116.0,102.0,13.4,1505.3,324.9,-0.7,1.8,2470.384,13.32,0.031,65.9
2020-04-01T09:31:03,42.805,6.029,0.029,0.008,-0.049,107.0,114.0,102.0,13.4,1505.3,326.7,-0.7,1.9,2470.384,13.32,0.03,74.6
2020-04-01T09:34:03,42.805,6.029,0.026,-0.001,-0.035,106.0,113.0,103.0,13.4,1505.3,323.1,-0.7,1.8,2470.361,13.32,0.026,92.2
2020-04-01T09:37:02,42.805,6.029,0.019,0.027,-0.034,106.0,114.0,104.0,13.3,1505.3,325.5,-0.7,1.8,2470.36,13.33,0.033,35.1
2020-04-01T09:40:03,42.805,6.029,0.013,0.022,-0.03,106.0,114.0,103.0,13.4,1505.3,326.9,-0.7,1.8,2470.317,13.32,0.025,30.6
2020-04-01T09:43:03,42.805,6.029,0.007,0.016,-0.082,106.0,115.0,103.0,13.4,1505.3,327.4,-0.7,1.8,2470.345,13.33,0.017,23.6
2020-04-01T09:46:03,42.805,6.029,0.039,0.023,-0.011,106.0,115.0,103.0,13.4,1505.3,325.9,-0.7,1.8,2470.305,13.33,0.045,59.5
2020-04-01T09:49:02,42.805,6.029,0.01,0.01,-0.031,106.0,115.0,101.0,13.3,1505.3,327.9,-0.7,1.8,2470.365,13.33,0.014,45.0
2020-04-01T09:52:02,42.805,6.029,0.043,0.012,-0.03,105.0,115.0,101.0,13.4,1505.3,327.0,-0.7,1.8,2470.396,13.32,0.044,74.4
2020-04-01T09:55:03,42.805,6.029,-0.003,0.026,-0.064,106.0,114.0,103.0,13.4,1505.3,323.9,-0.7,1.8,2470.388,13.32,0.026,353.4
2020-04-01T09:58:03,42.805,6.029,0.013,0.012,-0.055,107.0,114.0,102.0,13.4,1505.3,324.7,-0.7,1.8,2470.378,13.33,0.017,47.3
2020-04-01T10:04:02,42.805,6.029,0.035,0.007,-0.025,105.0,114.0,103.0,13.4,1505.3,325.9,-0.7,1.8,2470.382,13.31,0.035,78.7
2020-04-01T10:07:02,42.805,6.029,0.023,0.028,-0.01,107.0,114.0,103.0,13.4,1505.3,328.5,-0.7,1.9,2470.388,13.31,0.036,39.4